Find Local Weather

World > North America > United States > Illinois

Bensenville, Illinois Regional Weather

Lat: 41.96N, Lon: 87.94W
Wx Zone: ILZ013
Warning FLW WEATHER ALERT - (More Info. Click Here) Warning
Feedback
Expires:201807210100;;794387
ASUS43 KLOT 210009
RWRIL 

ILLINOIS REGIONAL WEATHER ROUNDUP
NATIONAL WEATHER SERVICE CHICAGO/ROMEOVILLE IL
700 PM CDT FRI JUL 20 2018

NOTE: "FAIR" INDICATES FEW OR NO CLOUDS BELOW 12,000 FEET WITH NO
SIGNIFICANT WEATHER AND/OR OBSTRUCTIONS TO VISIBILITY.

* THESE STATIONS ARE NOT UNDER NWS QUALITY CONTROL. THEY ALSO MAY NOT
  REPORT WEATHER SUCH AS PRECIPITATION OR FOG.


ILZ005-006-012>014-019>023-210100-
NORTHEAST ILLINOIS
  
CITY           SKY/WX    TMP DP  RH WIND       PRES   REMARKS
CHICAGO-OHARE  PTSUNNY   73  65  75 W17G24    29.65S                  
6HR MIN TEMP:  71; 6HR MAX TEMP:  76; 6HR PCP:  0.07;                

CHICAGO-MIDWAY CLOUDY    71  68  90 W15G24    29.67R                  
6HR MIN TEMP:  70; 6HR MAX TEMP:  75; 6HR PCP:  0.30;                

AURORA         CLOUDY    72  68  87 W13       29.68S                  
6HR MIN TEMP:  70; 6HR MAX TEMP:  77; 6HR PCP:  0.10;                

LANSING*       CLOUDY    72  69  90 W14G22    29.68S                  
JOLIET*        CLOUDY    74  69  83 W12G20    29.68F                  
WAUKEGAN       PTSUNNY   72  68  87 SW7       29.63S                  
6HR MIN TEMP:  71; 6HR MAX TEMP:  78; 6HR PCP:  0.03;                

DUPAGE AIRPORT LGT RAIN  68  68 100 W12       29.67S FOG              
6HR MIN TEMP:  68; 6HR MAX TEMP:  73; 6HR PCP:  0.34;                

KANKAKEE*      PTSUNNY   74  65  73 W20G29    29.72S                  
WHEELING       CLOUDY    74  68  81 W10       29.66S                  
6HR MIN TEMP:  73; 6HR MAX TEMP:  77; 6HR PCP: TRACE;                

MORRIS*        FAIR      73  66  78 W15G22    29.69S                  
ROMEOVILLE*    CLOUDY    70  68  93 W10G20    29.68S                  
NORTHERLY ISL    N/A     73  66  78 SW14        N/A                   
$$


SKY/WX - Weather  TMP - Temperature  DP - Dewpoint  RH - Relative Humidity
WIND - Wind Direction/Speed PRES - Barometric Pressure